Probability
0 0 0 0 0 0 2 5 4 2 0 0 0 0 1 4 7 6 3 2 3 3 5 6 4 2 2 1 0 0 0 0 0 1 1 1 0 0 0 0 0 0 0
0 0 0 0 0 1 3 4 4 1 0 0 0 0 1 3 5 5 4 3 3 3 3 4 3 1 1 0 0 0 0 0 0 0 0 0 0 0 0 0 0 0 0
0 0 0 0 1 3 4 3 2 1 0 0 0 0 0 2 4 5 4 3 4 3 2 2 2 1 0 0 0 0 0 0 0 0 0 0 0 0 0 0 0 0 0
0 0 0 0 2 4 3 3 2 0 0 0 0 0 0 2 3 4 3 2 2 2 1 0 1 1 1 0 0 0 0 0 0 0 0 0 0 0 0 0 0 0 0
0 0 0 1 2 3 3 3 2 1 0 0 0 0 0 1 2 2 1 1 0 0 0 0 1 2 1 0 0 0 0 0 0 0 0 0 0 0 0 0 0 0 0
0 0 0 1 2 3 3 3 3 1 0 0 0 0 0 1 2 1 0 0 0 0 0 0 1 2 2 1 0 0 0 0 0 0 0 0 0 0 0 0 0 0 0
0 0 0 0 2 3 3 3 3 2 1 0 0 0 0 0 1 1 0 0 0 0 0 0 0 1 1 1 0 0 0 0 0 0 0 0 0 0 0 0 0 0 0
0 0 0 0 1 2 3 3 3 3 1 0 0 0 0 0 0 0 0 0 0 0 0 0 0 0 0 0 0 0 0 0 0 0 0 0 0 0 0 0 0 0 0
0 0 0 0 1 1 3 4 3 2 1 0 0 0 0 0 0 0 0 0 0 0 0 0 0 0 0 0 0 0 0 0 0 0 0 0 0 0 0 0 0 0 0
0 0 0 0 0 1 3 5 3 1 0 0 0 0 0 0 0 0 0 0 0 0 0 0 0 0 0 0 0 0 0 0 0 0 0 0 0 0 0 0 0 0 0
0 0 0 0 0 1 3 5 3 1 0 0 0 0 0 0 0 0 0 0 0 0 0 0 0 0 0 0 0 0 0 0 0 0 0 0 0 0 0 0 0 0 0
0 0 0 0 0 0 1 2 2 1 0 0 0 0 0 0 0 0 0 0 0 0 0 0 0 0 0 0 0 0 0 0 0 0 0 0 0 0 0 0 0 0 0
0 0 0 0 0 0 0 0 0 0 0 0 0 0 0 0 0 0 0 0 0 0 0 0 0 0 0 0 0 0 0 0 0 0 0 0 0 0 0 0 0 0 0
0 0 0 0 0 0 0 0 0 0 0 0 0 0 0 0 0 0 0 0 0 0 0 0 0 0 0 0 0 0 0 0 0 0 0 0 0 0 0 0 0 0 0
0 0 0 0 0 0 0 0 0 0 0 0 0 0 0 0 0 0 0 0 0 0 0 0 0 0 0 0 0 0 0 0 0 0 0 0 0 0 0 0 0 0 0
0 0 0 0 0 0 0 0 0 0 0 0 0 0 0 0 0 0 0 0 0 0 0 0 0 0 0 0 0 0 0 0 0 0 0 0 0 0 0 0 0 0 0
0 0 0 0 0 0 0 0 0 0 0 0 0 0 0 0 0 0 0 0 0 0 0 0 0 0 0 0 0 0 0 0 0 0 0 0 0 0 0 0 0 0 0
0 0 0 0 0 0 0 0 0 0 0 0 0 0 0 0 0 0 0 0 0 0 0 0 0 0 0 0 0 0 0 0 0 0 0 0 0 0 0 0 0 0 0
0 0 0 0 0 0 0 0 0 0 0 0 0 0 0 0 0 0 0 0 0 0 0 0 0 0 0 0 0 0 0 0 0 0 0 0 0 0 0 0 0 0 0
0 0 0 0 0 0 0 0 0 0 0 0 0 0 0 0 0 0 0 0 0 0 0 0 0 0 0 0 0 0 0 0 0 0 0 0 0 0 0 0 0 0 0
0 0 0 0 0 0 0 0 0 0 0 0 0 0 0 0 0 0 0 0 0 0 0 0 0 0 0 0 0 0 0 0 0 0 0 0 0 0 0 0 0 0 0
0 0 0 0 0 0 0 0 0 0 0 0 0 0 0 0 0 0 0 0 0 0 0 0 0 0 0 0 0 0 0 0 0 0 0 0 0 0 0 0 0 0 0
0 0 0 0 0 0 0 0 0 0 0 0 0 0 0 0 0 0 0 0 0 0 0 0 0 0 0 0 0 0 0 0 0 0 0 0 0 0 0 0 0 0 0
0 0 0 0 0 0 0 0 0 0 0 0 0 0 0 0 0 0 0 0 0 0 0 0 0 0 0 0 0 0 0 0 0 0 0 0 0 0 0 0 0 0 0
0 0 0 0 0 0 0 0 0 0 0 0 0 0 0 0 0 0 0 0 0 0 0 0 0 0 0 0 0 0 0 0 0 0 0 0 0 0 0 0 0 0 0
0 0 0 0 0 0 0 0 0 0 0 0 0 0 0 0 0 0 0 0 0 0 0 0 0 0 0 0 0 0 0 0 0 0 0 0 0 0 0 0 0 0 0
Wind_Speed
3 2 2 2 2 3 3 3 3 3 2 2 2 3 3 3 3 3 5 5 5 5 4 4 4 5 4 4 4 3 3 2 2 1 1 2 3 4 4 4 4 5 6
2 2 3 3 2 3 3 3 3 4 3 3 3 3 3 3 3 3 4 5 5 5 5 5 5 5 4 5 5 4 3 3 3 2 1 1 2 3 4 3 4 5 4
3 3 3 3 3 4 3 4 4 4 4 4 3 3 3 3 3 3 3 4 5 5 5 5 5 5 5 5 5 5 4 4 3 3 3 3 3 2 2 4 4 4 4
2 3 3 4 4 4 3 3 4 4 4 4 4 4 5 4 4 3 3 4 4 5 5 6 5 5 5 6 6 5 4 5 4 4 3 3 2 2 2 2 3 5 6
2 2 3 3 3 3 3 4 4 4 4 4 4 4 5 4 3 3 4 3 3 4 4 5 5 5 5 6 6 5 5 4 5 4 3 3 2 3 3 4 3 3 4
2 2 2 3 4 3 3 4 4 4 4 4 4 4 5 5 5 5 4 3 3 3 3 3 4 4 4 5 6 6 6 5 5 4 4 4 3 4 3 4 4 4 4
2 2 3 4 4 4 4 4 4 4 4 4 4 4 5 5 6 6 5 4 3 2 3 4 4 4 4 5 5 5 6 6 6 6 5 5 5 4 4 3 4 3 3
2 2 3 4 4 5 4 4 4 4 4 3 4 4 4 4 4 5 4 3 3 3 4 4 4 4 4 5 5 5 5 5 6 7 6 4 4 4 4 4 3 3 3
2 3 3 4 5 4 4 4 4 4 3 3 4 4 3 4 4 4 4 3 3 3 4 4 4 4 5 5 5 4 5 5 5 6 6 5 4 4 4 4 4 4 4
3 3 4 4 4 4 3 3 4 4 3 4 4 3 3 3 3 3 4 3 3 3 4 4 4 4 4 5 5 4 5 5 5 4 5 5 4 4 4 4 4 4 4
3 4 4 4 4 4 3 3 3 3 3 3 4 3 3 2 2 3 3 3 3 3 4 4 3 3 4 4 4 4 4 5 5 4 5 6 5 5 4 4 4 4 3
3 4 4 4 4 3 3 3 3 3 3 3 3 2 2 2 2 2 2 2 2 3 3 3 3 3 4 4 4 4 4 4 5 5 5 6 5 6 5 4 5 4 4
3 3 4 4 4 3 3 3 3 3 3 3 2 2 2 2 2 2 1 2 2 2 2 2 3 3 4 4 3 4 4 4 4 4 5 5 5 6 4 4 4 4 4
3 3 4 4 4 3 4 3 3 3 3 2 2 2 2 2 2 1 1 1 1 1 2 2 2 3 3 3 3 3 3 3 3 4 4 5 5 6 5 4 4 3 3
5 4 4 4 4 4 4 4 3 3 2 2 2 2 2 2 1 1 1 1 1 1 0 1 1 2 2 2 2 2 3 3 3 3 4 5 5 5 5 4 4 4 4
5 5 5 5 5 4 4 4 4 3 3 2 2 2 2 2 1 1 1 1 1 1 1 1 2 2 2 3 4 4 2 3 3 3 3 4 4 4 6 6 6 7 6
5 5 5 4 4 4 4 4 4 3 3 2 2 2 2 2 2 1 1 0 1 1 1 2 2 2 2 3 4 4 3 2 2 3 3 3 2 2 2 4 5 7 9
4 4 4 5 4 4 4 4 3 3 3 3 3 2 2 2 2 1 1 1 1 1 1 1 1 1 2 3 4 4 3 2 2 3 3 3 3 2 2 3 3 3 4
3 3 4 3 4 4 4 4 3 3 4 4 3 3 2 2 2 2 2 2 1 1 2 1 1 1 2 3 4 4 1 1 2 3 3 3 3 3 3 2 2 2 2
3 3 4 4 4 4 4 4 3 4 4 4 4 3 2 2 3 3 2 2 1 2 2 2 1 2 2 3 4 4 1 1 2 2 2 3 4 4 3 3 3 3 2
3 3 3 3 3 3 3 3 3 4 4 4 4 4 3 3 2 2 2 2 2 2 2 2 2 2 3 4 4 5 2 1 2 2 2 2 4 4 4 4 3 4 3
4 4 3 4 4 3 3 3 3 4 4 4 4 4 3 3 3 2 3 2 2 2 2 2 3 2 2 3 4 5 5 5 3 3 3 3 4 4 4 3 3 3 2
3 3 3 3 3 3 2 2 3 3 4 4 4 4 4 3 3 2 3 2 2 2 2 2 2 3 2 2 4 5 5 6 4 2 3 4 3 3 1 2 3 3 2
2 2 3 3 3 3 2 2 3 3 3 3 3 3 4 3 3 3 2 2 2 2 2 2 3 3 3 2 2 2 2 3 3 2 2 2 2 1 0 2 2 1 2
2 2 2 3 4 3 3 2 2 2 3 3 3 3 3 3 3 2 2 3 2 3 3 2 2 3 3 4 6 4 2 2 2 2 1 0 1 1 1 1 1 1 1
2 3 3 3 3 3 3 2 2 2 2 3 3 3 2 3 3 3 3 5 5 7 8 7 6 5 6 7 8 7 7 6 4 2 1 1 1 2 2 2 1 1 1
Wind_Direction
250 256 267 277 286 293 296 297 285 278 283 275 263 255 248 244 243 231 224 225 219 208 198 198 190 184 187 192 193 191 191 197 184 188 273 275 241 229 224 218 207 201 198
260 278 293 298 293 287 285 295 294 284 279 275 264 248 252 247 238 235 227 221 216 211 208 196 195 189 186 192 194 187 189 205 182 174 175 259 273 249 233 222 213 207 198
283 283 286 287 298 291 282 294 293 288 282 280 280 274 275 271 260 247 235 222 216 209 208 203 200 193 190 193 196 196 195 198 206 193 185 196 224 265 250 226 220 211 208
274 282 287 294 295 292 289 285 287 285 290 280 272 265 259 256 255 246 238 229 220 214 209 204 203 199 196 194 200 204 195 192 206 217 221 219 205 207 254 249 226 218 215
284 296 304 301 304 307 302 289 286 283 286 281 273 269 267 261 258 254 249 238 226 219 212 206 199 206 205 199 202 204 202 199 207 215 221 229 239 225 218 247 240 239 230
304 293 303 313 309 309 298 286 280 285 284 273 267 262 267 264 263 258 245 233 219 218 211 209 207 210 215 208 203 206 207 207 212 221 221 214 214 222 224 232 229 237 243
300 304 315 313 307 304 293 283 280 288 288 282 272 263 263 256 250 250 240 229 222 221 210 209 207 208 216 216 211 208 210 207 209 219 227 228 226 222 227 226 233 247 256
288 295 303 297 296 293 288 282 280 280 285 292 286 272 264 259 252 250 242 230 230 223 207 200 206 209 214 221 213 213 216 212 211 222 225 232 236 229 224 219 220 245 260
304 303 299 299 296 288 275 270 270 274 282 290 291 279 262 258 260 257 250 227 224 225 208 200 202 209 215 216 212 218 222 216 218 218 221 230 236 233 231 218 208 215 242
319 312 304 297 299 292 277 278 271 273 282 281 275 283 271 261 251 246 245 229 217 217 202 203 203 213 222 218 216 218 221 222 225 221 220 230 233 232 228 217 218 216 221
305 305 307 305 299 296 285 284 281 285 287 283 279 282 281 275 255 243 238 225 217 207 206 205 209 216 219 217 218 223 222 223 226 224 225 232 233 234 230 215 213 218 212
310 312 312 311 312 303 296 295 291 292 289 284 288 290 292 286 268 253 245 227 224 215 210 201 214 226 228 222 215 223 233 234 232 228 228 234 235 239 231 210 210 214 215
307 315 317 315 320 323 322 322 319 308 301 301 307 314 317 315 296 278 253 225 221 223 223 216 224 231 230 227 217 219 233 240 240 236 232 236 239 240 227 210 212 214 220
330 329 322 318 323 332 332 333 333 329 325 329 325 323 316 315 300 307 313 265 211 214 224 228 232 229 232 236 235 231 235 240 245 247 243 239 242 230 218 213 212 211 210
341 337 330 327 333 343 340 340 338 337 345 352 335 326 335 341 342 2 355 4 15 289 228 229 247 241 241 239 244 242 245 241 250 257 257 256 246 232 223 219 211 205 205
333 338 338 335 338 341 343 346 345 352 14 10 345 338 354 353 2 22 17 3 337 310 273 241 244 248 261 269 277 276 265 247 246 254 266 266 260 244 233 230 227 216 211
334 333 332 331 334 338 344 340 341 358 16 7 353 354 1 355 348 345 16 340 299 301 288 265 245 244 241 267 282 288 283 256 252 255 266 273 261 259 237 235 237 231 226
329 332 336 338 342 345 347 344 358 11 12 4 359 357 360 357 351 2 343 306 305 303 298 297 276 271 257 274 287 301 303 292 286 271 260 256 253 241 233 232 235 238 233
324 334 333 333 342 345 348 358 6 6 6 359 352 345 343 346 348 347 341 325 322 315 307 293 282 276 262 274 288 298 302 300 299 286 275 259 252 248 235 217 225 238 239
346 345 343 347 347 343 354 3 358 359 353 349 345 347 350 353 346 339 336 333 327 310 307 304 288 262 245 269 288 300 286 293 294 290 280 269 260 267 238 216 202 211 222
342 347 342 336 330 341 358 358 355 345 340 348 354 353 355 347 335 333 332 331 328 327 317 306 298 288 270 280 286 291 285 259 276 278 278 263 261 263 252 235 213 202 201
339 339 334 327 330 347 359 354 340 334 348 358 356 349 343 334 332 333 327 326 325 321 310 299 301 302 293 283 282 286 286 286 270 267 265 257 262 269 259 236 181 166 171
317 320 318 317 323 339 353 336 327 339 350 357 351 344 343 340 333 326 321 319 318 305 301 298 293 298 303 294 286 288 291 296 286 263 267 285 291 300 283 167 160 158 164
311 318 320 314 313 320 332 325 332 341 350 341 335 339 342 340 340 335 326 317 309 300 294 294 297 300 300 300 299 289 300 312 312 304 296 297 313 318 140 149 147 155 169
313 311 301 298 301 311 320 332 341 343 335 329 326 328 330 326 326 326 321 311 303 291 292 283 277 285 292 296 302 300 295 289 274 290 278 172 150 139 146 140 132 135 145
311 307 300 301 305 312 313 324 333 333 323 321 319 317 314 314 312 309 315 315 304 310 302 294 287 286 285 296 304 310 310 311 306 312 164 185 186 186 183 177 166 165 172